www.pogodaiklimat.ru

Погода и климат >> Архив погоды >> Россия >> Амурская область >> Сковородино


АРХИВ ПОГОДЫ в Сковородино

Время (UTC), дата Ветер
(напр.,м/с)
 
Видим.   Явления Облачность Т
(С)
Тd
(С)
f
(%)
Тe
(С)
Тes
(С)
Комфортность P
(гПа)
Po
(гПа)
Тmin
(С)
Tmax
(С)
R
(мм)
R24
(мм)
S
(см)
03 10.06 Ю 3 50 км 6/3 600 м
[Cu hum Ac trans Cs]
+25.1 +9.8 38 +26 +33 жарко 1002.3 958.0
06 10.06 СВ 2 50 км 6/4 600 м
[Cu med, cong Ac trans]
+26.4 +6.9 29 +26 +32 жарко 1000.1 956.1
09 10.06 ЮЗ 3 50 км {ливн. осадки} 9/8 600 м
[Cb cap Ac trans]
+23.0 +12.3 51 +26 +26 жарко 1000.9 956.4
12 10.06 СВ 1 50 км {гроза, ливн. осадки} 6/3 600 м
[Cb cap Ci fib]
+18.0 +13.8 76 +19 +19 1002.3 957.1 +28.2 2
15 10.06 СВ 2 50 км 3/0
[Ac trans]
+11.0 +9.7 92 +10 +10 1004.9 958.4
18 10.06 СВ 2 50 км 4/0
[Ac lent]
+9.8 +8.6 92 +8 +8 1006.8 960.0
21 10.06 В 3 50 км 8/0
[Ac As]
+12.5 +9.5 82 +11 +11 1007.7 961.4
00 11.06 В 3 50 км 8/8 600 м
[Sc]
+16.7 +10.8 68 +16 +18 1007.9 962.2 +8.9
03 11.06 ЮВ 2 50 км 4/3 600 м
[Sc Ci fib]
+21.6 +12.4 56 +24 +35 комфорт 1005.9 961.0
06 11.06 ЮВ 3 50 км 6/3 600 м
[Cu Sc Ci]
+23.4 +11.4 47 +26 +33 жарко 1004.3 959.8
09 11.06 В 4 50 км 4/1 600 м
[Cu hum Ci fib]
+23.7 +11.1 45 +25 +27 комфорт 1003.2 958.8
12 11.06 В 2 50 км 8/0
[Ci]
+19.3 +11.3 60 +21 +21 комфорт 1004.4 959.3 +24.2
15 11.06 В 4 50 км 1/0
[Ci fib]
+13.2 +9.8 80 +12 +12 1005.6 959.5
18 11.06 В 5 50 км 1/0
[Ci fib]
+12.6 +9.1 79 +10 +10 1004.3 958.1
21 11.06 штиль 0 50 км ?/? +13.7 +10.3 80 +13 +13 1002.3 956.4
00 12.06 В 4 10 км 9/8 600 м
[Sc diur, vesp Ci fib]
+16.0 +12.0 77 +15 +16 1001.1 955.5 +12.0
03 12.06 В 3 50 км 9/9 600 м
[Cb cap]
+17.8 +13.3 75 +18 +19 1000.4 955.1
06 12.06 В 4 50 км слаб. ливневой дождь 10/10 600 м
[Cb cap]
+19.2 +14.7 75 +21 +21 комфорт 998.4 993.5
09 12.06 В 5 10 км {ливн. осадки} 10/10 600 м
[Cb cap]
+17.0 +13.9 82 +16 +16 998.6 953.4
12 12.06 штиль 0 50 км ?/? +15.1 +13.0 87 +15 +15 999.4 953.9 +20.6 0.5
18 12.06 В 4 10 км 10/10 600 м
[Cb cap]
+15.1 +13.0 87 +14 +14 999.4 953.9 +20.6 0.5
21 12.06 С 4 10 км {ливн. осадки} 10/10 600 м
[Cb cap]
+10.5 +8.9 90 +8 +8 1002.8 956.4
00 13.06 С 2 10 км {ливн. осадки} 10/10 600 м
[Cb cap]
+11.2 +7.9 80 +10 +10 1005.0 958.5 +9.9 6
03 13.06 С 3 10 км в посл. час ливневой дождь 10/10 600 м
[Cb cap]
+12.1 +8.2 77 +11 +11 1006.4 960.0
09 13.06 СВ 5 50 км {ливн. осадки} 10/8 600 м
[Cb cap Ac trans Ci ing]
+14.4 +8.3 67 +13 +13 1008.0 962.0
12 13.06 СВ 1 50 км {ливн. осадки} 6/3 600 м
[Cb cap Ac lent]
+12.5 +7.6 72 +13 +13 1009.5 963.1 +15.3 0.6
15 13.06 штиль 0 50 км 8/4 600 м
[Cb cap Ac lent]
+10.1 +8.5 90 +9 +9 1010.6 963.7
18 13.06 В 1 50 км 8/4 600 м
[Cb cap Ac As]
+8.0 +7.2 95 +7 +7 1011.3 964.0
21 13.06 С 1 50 км 9/8 600 м
[Cb cap Ac lent]
+7.8 +7.0 95 +7 +7 1012.6 965.2
00 14.06 штиль 0 50 км {ливн. осадки} 9/8 600 м
[Sc Ac lent]
+11.6 +8.8 83 +11 +12 1012.8 966.1 +7.2 0.0
03 14.06 ЮЗ 1 50 км 9/4 600 м
[Cb cap Ac As]
+17.8 +9.2 57 +19 +24 1012.2 966.5
06 14.06 ЮВ 2 50 км 8/4 600 м
[Cb cap Ac As Ci fib]
+18.4 +7.5 49 +19 +24 1011.9 966.2
09 14.06 В 4 50 км 6/3 600 м
[Cb cap Ac trans]
+18.3 +9.6 57 +18 +20 1012.0 966.4
12 14.06 С 2 50 км 4/4 600 м
[Sc]
+14.8 +10.6 76 +15 +15 1013.5 967.2 +20.9
15 14.06 С 2 50 км 3/0
[Ac trans Ci fib]
+7.1 +6.2 94 +5 +5 1016.2 968.5
00 15.06 СВ 2 50 км ясно +15.4 +8.4 63 +15 +24 1015.6 969.4 +2.8
12 15.06 В 4 50 км 8/8 600 м
[Cb cap Ci fib]
+16.0 +8.2 60 +15 +15 1011.3 965.2 +23.1
00 16.06 В 5 50 км 1/1 600 м
[Cb cap]
+17.5 +12.6 73 +17 +21 1009.0 963.4 +10.4 0.0
12 16.06 СВ 3 50 км в посл. час ливневой дождь {гроза} 8/8 600 м
[Cb cap Ci fib]
+14.0 +13.0 94 +13 +13 1006.6 960.7 +28.4 9

 

Местоположение метеостанции Сковородино (Амурская область, Россия): широта 54.00 долгота 123.90 высота над уровнем моря 397 м.

В архиве по умолчанию представлена погода в Сковородино за последнюю неделю. Архивные данные за месяц целиком и за предыдущие месяцы, начиная с января 2011 года, Вы можете получить, выбрав интересующий диапазон дат из раскрывающегося списка и нажав кнопку "Ввод!".


*Определитесь, кто Вы:
робот инопланетянин человек

Внимание! Время в таблицах - всемирное. Для получения местного времени необходимо прибавить поправку, которая равна 9 ч.

Смотрите также архив погоды в соседних городах и на ближайших метеорологических станциях:

Погода в Джалинде (Амурская область, Россия) (59 км)
Погода в Игнасино (Амурская область, Россия) (115 км)
Погода в Ерофей Павловиче (Амурская область, Россия) (131 км)
Погода в Тынде (Амурская область, Россия) (139 км)
Погода в Магдагачи (Амурская область, Россия) (139 км)
Погода в Покровке (Забайкальский край, Россия) (174 км)
Погода в Тыгде (Амурская область, Россия) (188 км)
Погода в Черняево (Амурская область, Россия) (194 км)
Погода в Амазаре (Забайкальский край, Россия) (203 км)
Погода в Лопче (Амурская область, Россия) (211 км)

Пояснения к столбцам:

Ветер - указаны скорость ветра в м/с - средняя за 10 мин, порывы в срок и между сроками (в фигурных скобках) и направление, откуда дует ветер: С - северный, СВ - северо-восточный, В - восточный, ЮВ - юго-восточный, Ю - южный, ЮЗ - юго-западный, З - западный, СЗ - северо-западный.
Видимость - горизонтальная дальность видимости в метрах или километрах. При видимости от 1 до 10 км при отсутствии осадков обычно наблюдается дымка, при ухудшении видимости до 1 км и менее - туман. В сухую погоду видимость может ухудшаться дымом, пылью или мглою.
Явления - указаны атмосферные явления, наблюдавшиеся в срок или в последний час перед сроком; фигурными скобками обозначены явления, наблюдавшиеся между сроками (за 1-3 часа до срока); квадратными скобками обозначены град или гололедные отложения с указанием их диаметра в мм.
Облачность - указаны через наклонную черту общая и нижняя облачность в баллах и высота нижней границы облаков в метрах; квадратными скобками обозначены формы облаков: Ci - перистые, Cs - перисто-слоистые, Cc - перисто-кучевые, Ac - высококучевые, As - высокослоистые, Sc - слоисто-кучевые, Ns - слоисто-дождевые, Cu - кучевые, Cb - кучево-дождевые. Подробнее классификацию облаков см. в Атласе облаков (PDF).
T - Температура воздуха - температура, измеренная на высоте 2 м над землей.
Td - Температура точки росы - температура, при понижении до которой содержащийся в воздухе водяной пар достигнет насыщения.
f - Относительная влажность воздуха - влажноcть воздуха, измеренная на высоте 2 м над землей.
Te - Эффективная температура - температура, которую ощущает одетый по сезону человек в тени. Характеристика душности погоды. При расчете учитывается влияние влажности воздуха и скорости ветра на теплоощущения человека.
Tes - Эффективная температура на солнце - температура, которую ощущает человек, с поправкой на солнечный нагрев. Характеристика знойности погоды. Зависит от высоты солнца над горизонтом, облачности и скорости ветра. Ночью, в пасмурную погоду, а также при ветре 12 м/с и более поправка равна нулю.
P - Атмосферное давление - приведенное к уровню моря атмосферное давление.
Po - Атмосферное давление - измеренное на уровне метеостанции атмосферное давление.
Tmin - Минимальная температура - минимум температуры воздуха на высоте 2 м над землей.
Tmax - Максимальная температура - максимум температуры воздуха на высоте 2 м над землей.
R - Количество осадков - Количество выпавших осадков за период времени, мм. При наведении курсора мыши на число - период времени, за который выпало указанное количество осадков.
R24 - Количество осадков - Количество выпавших осадков за 24 часа, мм.
S - Снежный покров - Высота снежного покрова, см. При наведении курсора мыши на число - состояние снежного покрова и степень покрытия местности в баллах.